Location: Crescent
(42.8242°N, 73.7329°W)
Time: 00:31:45
(UTC+00:00)

Tiros 1 - Pass Details

Date: 16 February 2026
Orbit: 618 x 649 km, 48.4° (Epoch: 10 March)

Event Time Altitude Azimuth Distance (km) Brightness Sun altitude
Rises 20:58:48 0° 287° (WNW) 2,887 11.1 14.1°
Reaches altitude 10° 21:01:39 10° 270° (W) 1,978 10.9 13.6°
Maximum altitude 21:04:49 19° 225° (SW) 1,481 11.0 13.1°
Drops below altitude 10° 21:08:00 10° 180° (S) 1,974 10.1 12.6°
Sets 21:10:51 0° 163° (SSE) 2,880 10.6 12.2°
